Big Rapids, MI

11:44 AM EDT on September 30, 2016 (GMT -0400)
Roben-Hood

Weather History for KRQB - November, 2013

Change the Weather History Date:

Wednesday, November 6, 2013

  Actual Average Record
Temperature  
Mean Temperature 47 °F -  
Max Temperature 56 °F 46 °F 72 °F (1975)
Min Temperature 38 °F 30 °F 16 °F (1991)
Degree Days  
Heating Degree Days 18    
Moisture  
Dew Point 48 °F    
Average Humidity 96    
Maximum Humidity 100    
Minimum Humidity 72    
Precipitation  
Precipitation 0.58 in - - ()
Sea Level Pressure  
Sea Level Pressure 29.85 in    
Wind  
Wind Speed 10 mph (SW)    
Max Wind Speed 18 mph    
Max Gust Speed 33 mph    
Visibility 7 miles    
Events Rain    
Averages and records for this station are not official NWS values.
T = Trace of Precipitation, MM = Missing Value Source: NWS Daily Summary

Daily Weather History Graph

Daily Weather History Graph

Search for Another Location

Airport or City:

Trip Planner

Search our weather history database for the weather conditions in past years. The results will help you decide how hot, cold, wet, or windy it might be!

Date:

Astronomy

Nov. 06, 2013 Rise Set
Actual Time 7:24 AM EST 5:25 PM EST
Civil Twilight 6:54 AM EST 5:56 PM EST
Nautical Twilight 6:20 AM EST 6:30 PM EST
Astronomical Twilight 5:46 AM EST 7:03 PM EST
Moon 10:41 AM EST (11/6) 8:27 PM EST (11/6)
Length of Visible Light 11h 01m
Length of Day
10h 01m
Waxing Crescent, 13% of the Moon is Illuminated
Nov 6
Waxing Crescent
Nov 10
First Quarter
Nov 17
Full
Nov 25
Last Quarter
Dec 2
New

Hourly Weather History & Observations

Time (EST) Temp. Windchill Dew Point Humidity Pressure Visibility Wind Dir Wind Speed Gust Speed Precip Events Conditions
12:15 AM 51.8 °F - 44.6 °F 76% 30.02 in 10.0 mi South 9.2 mph - N/A   Overcast
12:35 AM 52.0 °F - 44.6 °F 76% 30.01 in 10.0 mi South 8.1 mph - N/A   Overcast
12:55 AM 52.2 °F - 44.2 °F 74% 30.00 in 10.0 mi South 10.4 mph - N/A   Overcast
1:15 AM 52.3 °F - 43.9 °F 73% 29.99 in 10.0 mi South 10.4 mph - N/A   Overcast
1:34 AM 52.7 °F - 43.9 °F 72% 29.97 in 10.0 mi South 10.4 mph - N/A   Overcast
1:55 AM 52.3 °F - 44.1 °F 73% 29.96 in 10.0 mi South 11.5 mph 17.3 mph N/A   Overcast
2:15 AM 52.9 °F - 44.8 °F 74% 29.97 in 7.0 mi South 9.2 mph 19.6 mph N/A   Overcast
2:34 AM 51.6 °F - 46.4 °F 82% 29.97 in 7.0 mi SSW 12.7 mph 20.7 mph N/A   Drizzle
2:55 AM 50.9 °F - 49.5 °F 95% 29.95 in 7.0 mi South 10.4 mph 16.1 mph N/A   Light Drizzle
3:15 AM 50.5 °F - 50.4 °F 99% 29.94 in 4.0 mi South 10.4 mph - N/A Rain Light Rain
3:34 AM 50.9 °F - 50.9 °F 100% 29.92 in 5.0 mi SSW 15.0 mph 21.9 mph N/A Rain Light Rain
3:55 AM 51.6 °F - 51.1 °F 98% 29.90 in 5.0 mi South 11.5 mph 20.7 mph N/A Rain Rain
4:15 AM 51.3 °F - 50.9 °F 99% 29.89 in 7.0 mi South 10.4 mph 20.7 mph 0.01 in Rain Light Rain
4:34 AM 51.4 °F - 50.9 °F 98% 29.88 in 10.0 mi South 8.1 mph 20.7 mph 0.03 in Rain Light Rain
4:55 AM 51.3 °F - 50.9 °F 99% 29.87 in 7.0 mi South 12.7 mph 21.9 mph 0.03 in Rain Rain
5:15 AM 51.3 °F - 50.9 °F 99% 29.87 in 5.0 mi SSW 11.5 mph 20.7 mph N/A Rain Light Rain
5:34 AM 51.4 °F - 51.4 °F 100% 29.86 in 5.0 mi SSW 6.9 mph 17.3 mph 0.01 in Rain Light Rain
5:55 AM 52.2 °F - 51.8 °F 99% 29.85 in 4.0 mi SSW 11.5 mph 21.9 mph 0.02 in   Drizzle
6:15 AM 51.8 °F - 51.8 °F 100% 29.84 in 10.0 mi South 6.9 mph 17.3 mph 0.01 in Rain Rain
6:34 AM 51.8 °F - 51.8 °F 100% 29.83 in 10.0 mi SSW 10.4 mph 18.4 mph 0.04 in Rain Light Rain
6:55 AM 52.0 °F - 52.0 °F 100% 29.82 in 7.0 mi SSW 10.4 mph 20.7 mph 0.04 in Rain Light Rain
7:15 AM 52.0 °F - 52.0 °F 100% 29.81 in 7.0 mi South 11.5 mph - 0.02 in Rain Light Rain
7:34 AM 52.2 °F - 52.2 °F 100% 29.80 in 10.0 mi South 8.1 mph - 0.03 in Rain Rain
7:55 AM 52.2 °F - 52.2 °F 100% 29.80 in 5.0 mi South 6.9 mph - 0.05 in Rain Rain
8:15 AM 52.3 °F - 52.3 °F 100% 29.79 in 7.0 mi SSW 10.4 mph 16.1 mph 0.01 in Rain Light Rain
8:34 AM 52.7 °F - 52.7 °F 100% 29.79 in 7.0 mi South 9.2 mph 20.7 mph 0.02 in Rain Light Rain
8:55 AM 53.1 °F - 53.1 °F 100% 29.77 in 5.0 mi South 8.1 mph - 0.03 in Rain Light Rain
9:15 AM 53.6 °F - 53.6 °F 100% 29.78 in 4.0 mi SSW 12.7 mph 18.4 mph 0.02 in Rain Rain
9:34 AM 54.1 °F - 54.1 °F 100% 29.77 in 5.0 mi SSW 10.4 mph 17.3 mph 0.05 in Rain Rain
9:55 AM 54.9 °F - 54.9 °F 100% 29.77 in 5.0 mi SSW 10.4 mph 19.6 mph 0.10 in Rain Rain
10:15 AM 55.6 °F - 55.6 °F 100% 29.76 in 7.0 mi SSW 11.5 mph 20.7 mph 0.04 in Rain Rain
10:34 AM 55.8 °F - 55.6 °F 99% 29.76 in 7.0 mi SW 12.7 mph 25.3 mph 0.07 in Rain Rain
10:55 AM 56.1 °F - 55.8 °F 99% 29.75 in 10.0 mi SW 15.0 mph 21.9 mph 0.09 in Rain Light Rain
11:15 AM 56.3 °F - 55.8 °F 98% 29.75 in 7.0 mi SW 11.5 mph 26.5 mph 0.02 in Rain Rain
11:34 AM 55.9 °F - 55.8 °F 99% 29.74 in 7.0 mi SSW 17.3 mph 25.3 mph 0.06 in Rain Rain
11:55 AM 55.8 °F - 55.6 °F 99% 29.73 in 7.0 mi SW 10.4 mph 25.3 mph 0.08 in Rain Rain
12:15 PM 55.9 °F - 55.8 °F 99% 29.72 in 10.0 mi SW 11.5 mph 25.3 mph 0.01 in Rain Light Rain
12:34 PM 55.9 °F - 55.8 °F 99% 29.71 in 10.0 mi SW 8.1 mph 18.4 mph 0.02 in Rain Light Rain
12:55 PM 55.6 °F - 55.6 °F 100% 29.70 in 7.0 mi SSW 9.2 mph 23.0 mph 0.03 in Rain Rain
1:15 PM 55.8 °F - 55.8 °F 100% 29.68 in 10.0 mi SSW 9.2 mph 20.7 mph 0.01 in Rain Light Rain
1:35 PM 55.6 °F - 55.4 °F 99% 29.67 in 10.0 mi SSW 16.1 mph 28.8 mph 0.01 in Rain Light Rain
1:55 PM 55.4 °F - 55.4 °F 100% 29.68 in 4.0 mi SSW 9.2 mph 28.8 mph 0.03 in Rain Rain
2:15 PM 55.6 °F - 55.6 °F 100% 29.68 in 5.0 mi SW 11.5 mph 20.7 mph 0.03 in Rain Rain
2:35 PM 55.8 °F - 55.6 °F 99% 29.69 in 4.0 mi WSW 16.1 mph 24.2 mph 0.05 in Rain Light Rain
2:52 PM 54.0 °F - 52.9 °F 96% 29.70 in 4.0 mi West 18.4 mph 33.4 mph 0.05 in Rain Light Rain
3:15 PM 52.2 °F - 51.4 °F 97% 29.70 in 7.0 mi West 10.4 mph - 0.01 in Rain Rain
3:34 PM 50.9 °F - 50.2 °F 97% 29.73 in 7.0 mi WNW 16.1 mph 24.2 mph 0.02 in Rain Light Rain
3:55 PM 47.7 °F - 46.9 °F 97% 29.75 in 10.0 mi WNW 15.0 mph 21.9 mph 0.02 in   Overcast
4:15 PM 46.2 °F 41.2 °F 46.0 °F 99% 29.77 in 2.5 mi WNW 10.4 mph 17.3 mph N/A   Overcast
4:34 PM 45.3 °F 39.3 °F 45.1 °F 99% 29.79 in 2.5 mi NNW 12.7 mph 17.3 mph N/A Rain Light Rain
4:55 PM 44.1 °F 37.4 °F 44.1 °F 100% 29.82 in 3.0 mi NW 13.8 mph 19.6 mph N/A Rain Light Rain
5:15 PM 43.3 °F 37.2 °F 43.0 °F 99% 29.82 in 2.5 mi NW 11.5 mph 16.1 mph N/A   Overcast
5:34 PM 42.8 °F 35.1 °F 42.3 °F 98% 29.85 in 7.0 mi NW 16.1 mph 24.2 mph N/A   Overcast
5:55 PM 42.3 °F 35.9 °F 41.4 °F 97% 29.86 in 10.0 mi NW 11.5 mph 17.3 mph N/A   Overcast
6:15 PM 42.1 °F 36.6 °F 41.2 °F 97% 29.87 in 10.0 mi NW 9.2 mph 18.4 mph N/A   Overcast
6:34 PM 41.9 °F 35.4 °F 40.5 °F 95% 29.89 in 10.0 mi NW 11.5 mph 18.4 mph N/A   Overcast
6:55 PM 41.5 °F 35.0 °F 41.2 °F 99% 29.91 in 5.0 mi NW 11.5 mph 19.6 mph N/A   Overcast
7:15 PM 41.5 °F 34.6 °F 41.0 °F 98% 29.92 in 10.0 mi NW 12.7 mph 17.3 mph N/A   Overcast
7:35 PM 41.2 °F 36.0 °F 41.0 °F 99% 29.93 in 7.0 mi NW 8.1 mph - N/A   Overcast
7:55 PM 41.0 °F 34.7 °F 40.6 °F 99% 29.93 in 7.0 mi NW 10.4 mph 16.1 mph N/A   Overcast
8:15 PM 41.0 °F 35.8 °F 40.5 °F 98% 29.95 in 10.0 mi NW 8.1 mph - N/A Rain Light Rain
8:35 PM 40.6 °F 35.4 °F 40.5 °F 99% 29.95 in 7.0 mi NW 8.1 mph - N/A Rain Light Rain
8:55 PM 40.5 °F 38.4 °F 40.5 °F 100% 29.96 in 4.0 mi NW 3.5 mph - N/A Rain Light Rain
9:14 PM 40.5 °F 35.8 °F 40.3 °F 99% 29.97 in 4.0 mi NW 6.9 mph - 0.01 in   Unknown
9:35 PM 40.5 °F 35.8 °F 39.9 °F 98% 29.98 in 10.0 mi NW 6.9 mph - 0.01 in   Overcast
9:55 PM 40.1 °F 34.7 °F 39.6 °F 98% 29.98 in 10.0 mi NW 8.1 mph - 0.01 in   Overcast
10:14 PM 39.7 °F 34.3 °F 38.7 °F 96% 29.99 in 10.0 mi NW 8.1 mph - N/A   Overcast
10:35 PM 39.0 °F 34.8 °F 37.9 °F 96% 30.00 in 10.0 mi WNW 5.8 mph - N/A   Mostly Cloudy
10:55 PM 38.7 °F - 38.1 °F 98% 30.00 in 10.0 mi Calm Calm - N/A   Mostly Cloudy
11:15 PM 38.7 °F 34.3 °F 38.3 °F 99% 30.00 in 7.0 mi WNW 5.8 mph - N/A   Overcast
11:35 PM 38.5 °F 32.1 °F 37.8 °F 97% 29.99 in 10.0 mi NW 9.2 mph - N/A   Overcast
11:55 PM 38.5 °F 34.1 °F 37.8 °F 97% 30.00 in 10.0 mi WNW 5.8 mph - N/A   Overcast